Regional Weather Roundup
Issued by NWS

Home | Current Version | Previous Version | Text Only | Print | Product List | Glossary On
Versions: 1 2 3 4 5 6 7 8 9 10 11 12 13 14 15 16 17 18 19 20 21 22 23 24 25 26 27 28 29 30 31 32 33 34 35 36 37 38 39 40 41 42 43 44 45 46 47 48 49 50
000
ASUS43 KLOT 040502
RWRIL

ILLINOIS REGIONAL WEATHER ROUNDUP
NATIONAL WEATHER SERVICE CHICAGO/ROMEOVILLE IL
1200 AM CDT MON MAY 04 2015

NOTE: "FAIR" INDICATES FEW OR NO CLOUDS BELOW 12,000 FEET WITH NO
SIGNIFICANT WEATHER AND/OR OBSTRUCTIONS TO VISIBILITY.

* THESE STATIONS ARE NOT UNDER NWS QUALITY CONTROL. THEY ALSO MAY NOT
  REPORT WEATHER SUCH AS PRECIPITATION OR FOG.

ILZ001-002-007-009-015-016-024-040600-
NORTHWEST ILLINOIS

CITY           SKY/WX    TMP DP  RH WIND       PRES   REMARKS
MOLINE         CLOUDY    72  53  51 S10       29.89R
STERLING*      CLOUDY    70  55  60 S3        29.91R
$$

ILZ003-004-008-010-011-017-018-040600-
NORTH CENTRAL ILLINOIS

CITY           SKY/WX    TMP DP  RH WIND       PRES   REMARKS
ROCKFORD       CLOUDY    62  55  77 S9        29.91R
$$

ILZ005-006-012>014-019>023-040600-
NORTHEAST ILLINOIS

CITY           SKY/WX    TMP DP  RH WIND       PRES   REMARKS
CHICAGO-OHARE  PTCLDY    64  53  67 S13       29.91F
CHICAGO-MIDWAY CLEAR     67  53  61 S10       29.93F
AURORA         PTCLDY    65  50  58 S12       29.93S
WAUKEGAN       PTCLDY    64  53  67 S15       29.89F
DUPAGE AIRPORT PTCLDY    63  53  70 S12       29.92F
WHEELING       PTCLDY    63  54  72 S10       29.92F
NORTHERLY ISL    N/A     69  48  47 S12         N/A
$$

LMZ740>746-040600-
SOUTHERN LAKE MICHIGAN

STATION/POSITION SKY/WX   TEMP    WIND        PRES    VSBY  WAVE
                          AIR SEA DIR/SP/G                  HT/PER
                          (F)     (DEG/KT/KT) (MB)    (MI)  (FT/S)
HARRISON CRIB              63     180/ 23/ 24   N/A
BURNHAM HARBOR             67     180/  9/ 13   N/A
CALUMET HARBOR             69     170/  5/  7   N/A
BURNS HARBOR               70     190/  6/ 12 1015.2R
MICHIGAN CITY              70     170/ 11/ 13   N/A
MICHIGAN CITY 6N           61 51  190/ 10/ 10   N/A           1
ST. JOSEPH                 60 49  210/ 10/ 12   N/A           1
$$

ILZ025>027-034>036-040-047-049-050-058-095>099-040600-
WEST-CENTRAL ILLINOIS

CITY           SKY/WX    TMP DP  RH WIND       PRES   REMARKS
QUINCY         MOCLDY    69  52  54 S9        29.95R
$$

ILZ028>032-037-038-041>044-048-051>054-059>061-040600-
CENTRAL ILLINOIS

CITY           SKY/WX    TMP DP  RH WIND       PRES   REMARKS
DECATUR        PTCLDY    67  45  45 S10       30.00R
PEORIA         PTCLDY    70  49  47 S9        29.95S
SPRINGFIELD    MOCLDY    71  49  45 S15       29.97R
TAYLORVILLE    NOT AVBL
$$

ILZ033-039-045-046-055>057-062-063-040600-
EAST-CENTRAL ILLINOIS

CITY           SKY/WX    TMP DP  RH WIND       PRES   REMARKS
CHAMPAIGN      PTCLDY    66  45  46 S15       30.00R
MATTOON        CLEAR     66  45  46 S9        30.02R
$$

ILZ079-100>102-040600-
SOUTHWEST ILLINOIS

CITY           SKY/WX    TMP DP  RH WIND       PRES   REMARKS
BELLEVILLE     PTCLDY    67  53  59 VRB3      29.99R
CAHOKIA*       CLEAR     69  52  54 S6        29.98R
$$

ILZ064>066-069>071-074>076-080>082-084>086-088>090-092>094-040600-
SOUTH-CENTRAL ILLINOIS

CITY           SKY/WX    TMP DP  RH WIND       PRES   REMARKS
CARBONDALE     CLEAR     66  46  48 S9        30.01F
MT. VERNON     CLEAR    N/A N/A N/A S7        30.03S
$$

ILZ067-068-072-073-078-083-087-091-040600-
SOUTHEAST ILLINOIS

CITY           SKY/WX    TMP DP  RH WIND       PRES   REMARKS
LAWRENCEVILLE  CLEAR     61  50  67 S7        30.05R
$$

ABBREVIATIONS USED IN REMARKS
   TC - TEMPERATURE IN CELSIUS
  WCI - WIND CHILL INDEX
   HX - HEAT INDEX
  VSB - VISIBILITY
$$



USA.gov is the U.S. government's official web portal to all federal, state and local government web resources and services.